Location: Domont
(49.0278°N, 2.3264°E)
Time: 12:07:44
(UTC+00:00)

UWE-3 - Pass Details

Date: 02 July 2022
Orbit: 583 x 677 km, 97.7° (Epoch: 14 August)

Event Time Altitude Azimuth Distance (km) Brightness Sun altitude
Rises 02:32:09 0° 23° (NNE) 2,891 ? -9.8°
Reaches altitude 10° 02:34:35 10° 35° (NE) 1,997 ? -9.6°
Maximum altitude 02:38:20 28° 95° (E) 1,203 ? -9.2°
Drops below altitude 10° 02:42:08 10° 154° (SSE) 2,033 ? -8.9°
Sets 02:44:38 0° 166° (SSE) 2,954 ? -8.6°
